Location: Dal�� Lhota
(48.7500°N, 14.0167°E)
Time: 06:15:45
(UTC+00:00)

Transit 2A - Pass Details

Date: 28 July 2021
Orbit: 594 x 964 km, 66.7° (Epoch: 24 September)

Event Time Altitude Azimuth Distance (km) Brightness Sun altitude
Rises 09:15:58 0° 286° (WNW) 2,924 8.7 52.3°
Reaches altitude 10° 09:19:36 10° 317° (NW) 2,084 8.0 52.7°
Maximum altitude 09:21:33 12° 342° (NNW) 1,968 7.9 52.9°
Drops below altitude 10° 09:23:35 10° 7° (N) 2,171 8.2 53.2°
Sets 09:27:34 0° 37° (NE) 3,191 9.2 53.6°
